EHI
0 0 0 0 0 0 0 0 0 0 0 0 0 0 0 0 0 0 0 0 0 0 0 0 0 0 0 0 0 0 0 0 0 0 0 0 0 0 0 0 0 0 0
0 0 0 0 0 0 0 0 0 0 0 0 0 0 0 0 0 0 0 0 0 0 0 0 0 0 0 0 0 0 0 0 0 0 0 0 0 0 0 0 0 0 0
0 0 0 0 0 0 0 0 0 0 0 0 0 0 0 0 0 0 0 0 0 0 0 0 0 0 0 0 0 0 0 0 0 0 0 0 0 0 0 0 0 0 0
0 0 0 0 0 0 0 0 0 0 0 0 0 0 0 0 0 0 0 0 0 0 0 0 0 0 0 0 0 0 0 0 0 0 0 0 0 0 0 0 0 0 0
0 0 0 0 0 0 0 0 0 0 0 0 0 0 0 0 0 0 0 0 0 0 0 0 0 0 0 0 0 0 0 0 0 0 0 0 0 0 0 0 0 0 0
0 0 0 0 0 0 0 0 0 0 0 0 0 0 0 0 0 0 0 0 0 0 0 0 0 0 0 0 0 0 0 0 0 0 0 0 0 0 0 0 0 0 0
0 0 0 0 0 0 0 0 0 0 0 0 0 0 0 0 0 0 0 0 0 0 0 0 0 0 0 0 0 0 0 0 0 0 0 0 0 0 0 0 0 0 0
0 0 0 0 0 0 0 0 0 0 0 0 0 0 0 0 0 0 0 0 0 0 0 0 0 0 0 0 0 0 0 0 0 0 0 0 0 0 0 0 0 0 0
0 0 0 0 0 0 0 0 0 0 0 0 0 0 0 0 0 0 0 0 0 0 0 0 0 0 0 0 0 0 0 0 0 0 0 0 0 0 0 0 0 0 0
0 0 0 0 0 0 0 0 0 0 0 0 0 0 0 0 0 0 0 0 0 0 0 0 0 0 0 0 0 0 0 0 0 0 0 0 0 0 0 0 0 0 0
0 0 0 0 0 0 0 0 0 0 0 0 0 0 0 0 0 0 0 0 0 0 0 0 0 0 0 0 0 0 0 0 0 0 0 0 0 0 0 0 0 0 0
0 0 0 0 0 0 0 0 0 0 0 0 0 0 0 0 0 0 0 0 0 0 0 0 0 0 0 0 0 0 0 0 0 0 0 0 0 0 0 0 0 0 0
0 0 0 0 0 0 0 0 0 0 0 0 0 0 0 0 0 0 0 0 0 0 0 0 0 0 0 0 0 0 0 0 0 0 0 0 0 0 0 0 0 0 0
0 0 0 0 0 0 0 0 0 0 0 0 0 0 0 0 0 0 0 0 0 0 0 0 0 0 0 0 0 0 0 0 0 0 0 0 0 0 0 0 0 0 0
0 0 0 0 0 0 0 0 0 0 0 0 0 0 0 0 0 0 0 0 0 0 0 0 0 0 0 0 0 0 0 0 0 0 0 0 0 0 0 0 0 0 0
0 0 0 0 0 0 0 0 0 0 0 0 0 0 0 0 0 0 0 0 0 0 0 0 0 0 0 0 0 0 0 0 0 0 0 0 0 0 0 0 0 0 0
0 0 0 0 0 0 0 0 0 0 0 0 0 0 0 0 0 0 0 0 0 0 0 0 0 0 0 0 0 0 0 0 0 0 0 0 0 0 0 0 0 0 0
0 0 0 0 0 0 0 0 0 0 0 0 0 0 0 0 0 0 0 0 0 0 0 0 0 0 0 0 0 0 0 0 0 0 0 0 0 0 0 0 0 0 0
0 0 0 0 0 0 0 0 0 0 0 0 0 0 0 0 0 0 0 0 0 0 0 0 0 0 0 0 0 0 0 0 0 0 0 0 0 0 0 0 0 0 0
0 0 0 0 0 0 0 0 0 0 0 0 0 0 0 0 0 0 0 0 0 0 0 0 0 0 0 0 0 0 0 0 0 0 0 0 0 0 0 0 0 0 0
0 0 0 0 0 0 0 0 0 0 0 0 0 0 0 0 0 0 0 0 0 0 0 0 0 0 0 0 0 0 0 0 0 0 0 0 0 0 0 0 0 0 0
0 0 0 0 0 0 0 0 0 0 0 0 0 0 0 0 0 0 0 0 0 0 0 0 0 0 0 0 0 0 0 0 0 0 0 0 0 0 0 0 0 0 0
0 0 0 0 0 0 0 0 0 0 0 0 0 0 0 0 0 0 0 0 0 0 0 0 0 0 0 0 0 0 0 0 0 0 0 0 0 0 0 0 0 0 0
0 0 0 0 0 0 0 0 0 0 0 0 0 0 0 0 0 0 0 0 0 0 0 0 0 0 0 0 0 0 0 0 0 0 0 0 0 0 0 0 0 0 0
0 0 0 0 0 0 0 0 0 0 0 0 0 0 0 0 0 0 0 0 0 0 0 0 0 0 0 0 0 0 0 0 0 0 0 0 0 0 0 0 0 0 0
0 0 0 0 0 0 0 0 0 0 0 0 0 0 0 0 0 0 0 0 0 0 0 0 0 0 0 0 0 0 0 0 0 0 0 0 0 0 0 0 0 0 0
Wind_Speed
3 3 3 3 3 4 4 4 5 5 5 5 5 5 5 6 6 6 7 7 9 9 9 10 11 10 9 8 8 8 9 10 14 12 9 9 10 10 9 9 10 11 10
2 2 2 2 2 2 2 2 2 3 3 4 4 4 5 5 5 5 7 7 8 9 9 9 10 8 11 9 8 10 9 9 11 15 10 8 10 10 10 10 9 8 10
1 1 2 2 2 2 2 1 1 2 2 2 3 3 3 3 4 5 5 6 7 8 8 9 9 9 10 9 10 10 9 8 10 12 12 9 8 7 9 9 10 9 9
1 1 1 1 1 1 1 1 1 1 1 1 1 2 2 2 2 3 4 5 6 7 8 8 9 9 10 10 9 10 9 10 10 11 11 9 8 7 6 8 9 8 8
0 0 0 0 0 0 0 0 0 0 0 1 1 1 1 1 2 3 4 5 6 6 7 7 8 8 10 9 8 9 9 9 9 9 10 9 8 6 6 6 9 8 9
1 1 0 1 1 1 1 1 1 1 1 1 1 1 1 1 3 4 5 5 5 5 6 6 7 7 8 10 11 12 12 11 11 10 10 11 11 9 7 7 8 8 9
2 1 1 1 1 2 2 1 1 1 1 1 1 1 1 3 4 5 5 4 4 5 5 6 5 5 7 9 10 11 11 12 13 12 13 13 11 9 8 9 9 9 11
2 1 1 1 1 2 2 2 2 1 1 1 1 2 2 3 5 5 5 4 4 4 5 6 6 7 7 8 9 10 9 9 10 10 12 12 11 10 9 10 11 10 9
2 1 1 1 2 2 2 1 1 1 1 1 2 3 3 4 5 6 6 3 4 5 5 5 6 7 9 9 9 10 10 9 8 10 13 14 15 13 10 7 6 6 9
2 2 1 1 1 1 1 1 1 1 1 1 2 2 3 4 6 7 7 3 4 4 4 4 5 8 10 10 8 9 11 10 9 9 10 11 11 10 9 7 7 7 7
2 1 1 1 1 1 1 1 1 1 1 1 2 2 3 3 5 7 8 4 4 5 5 5 5 9 11 12 11 9 11 11 9 9 8 8 7 6 6 6 5 6 7
3 2 1 1 1 1 1 1 1 1 1 1 2 2 2 3 4 6 8 7 7 5 5 5 6 11 12 13 10 10 12 10 7 7 7 7 7 6 6 6 6 6 7
3 2 2 1 1 1 1 1 1 1 0 1 1 2 3 3 4 6 7 8 9 6 5 8 11 12 12 9 10 11 9 6 6 6 7 7 7 7 6 6 6 6 6
3 2 2 2 1 1 1 0 0 0 0 1 1 2 3 3 3 4 4 5 6 5 5 7 10 10 9 8 7 7 5 5 6 6 7 7 7 6 6 6 6 6 6
3 2 1 1 1 1 1 1 1 1 1 1 2 2 3 4 5 8 6 5 5 5 6 5 5 5 5 5 5 5 5 5 5 6 6 7 7 7 7 6 6 6 6
2 2 1 1 1 0 0 1 2 2 3 3 3 3 3 5 8 8 9 9 9 8 5 4 5 5 5 6 6 6 5 5 6 6 6 6 7 7 7 6 6 6 7
2 1 1 1 0 0 0 0 1 1 2 3 4 5 5 7 8 8 9 8 7 7 3 4 4 5 5 6 6 6 6 6 6 6 6 6 6 6 7 7 6 6 7
1 1 1 1 1 1 1 1 1 1 2 2 3 5 7 7 8 8 8 6 4 3 3 4 5 5 6 6 6 6 7 6 6 6 6 6 6 6 6 7 7 8 7
1 1 1 1 1 1 1 1 1 2 2 3 3 4 5 7 7 7 6 3 4 4 4 4 5 5 6 6 6 6 7 6 7 7 6 7 6 6 6 7 7 9 8
1 1 1 1 1 1 1 1 2 2 2 3 3 4 4 4 3 4 3 3 4 4 5 5 5 5 6 6 6 6 6 6 7 6 7 6 6 6 7 8 7 7 7
1 1 1 1 2 2 2 2 2 2 3 3 4 5 6 4 5 5 5 4 4 5 5 5 5 6 6 6 6 6 7 7 6 7 7 7 7 7 6 6 7 7 6
1 2 2 2 2 2 2 2 2 3 4 4 4 5 7 5 5 5 5 5 5 5 5 6 6 6 6 6 6 6 7 7 7 7 7 7 7 7 7 6 6 6 6
2 2 2 2 2 2 3 3 3 3 4 4 5 5 4 4 5 5 5 5 5 5 5 6 6 6 6 6 6 6 7 7 7 7 8 7 7 7 7 7 8 7 7
2 2 2 2 3 3 3 4 4 4 5 5 5 5 5 5 6 6 6 6 6 6 6 6 7 9 11 9 7 7 7 8 8 7 9 8 8 7 7 7 7 7 6
2 3 3 3 3 4 4 4 4 5 5 5 5 5 5 6 6 6 6 6 7 7 8 8 7 8 10 11 10 9 10 11 10 7 7 7 7 8 7 7 6 7 6
3 3 3 3 4 4 4 5 5 5 5 5 5 6 6 6 6 6 6 6 6 7 7 7 8 10 11 10 11 12 11 11 10 9 7 6 6 6 6 6 7 6 6
Wind_Direction
243 231 218 223 224 224 224 227 228 229 228 228 228 230 235 238 240 241 245 252 253 254 252 252 254 255 254 252 249 249 250 252 265 273 272 272 265 261 260 257 258 259 258
254 238 223 217 212 208 215 227 232 234 232 232 232 232 236 240 242 247 251 254 257 260 262 262 261 260 258 257 254 253 253 252 260 272 274 272 267 266 265 263 259 256 258
251 222 222 220 212 211 218 226 226 229 238 241 237 238 244 248 251 256 260 263 265 267 268 268 270 270 267 265 264 262 260 259 257 266 272 271 270 267 269 268 266 261 261
268 223 217 229 221 215 214 210 212 226 232 243 252 257 261 263 271 281 278 276 274 274 274 273 274 273 274 277 273 270 269 267 263 264 268 270 267 269 266 268 271 264 264
193 164 258 285 244 148 99 73 71 55 7 318 316 320 316 298 314 310 295 282 279 279 281 281 280 282 282 280 279 280 279 273 270 267 269 272 269 268 262 266 268 274 270
171 161 100 67 60 56 60 61 57 51 38 25 9 0 349 343 349 336 316 290 285 286 290 292 290 286 290 285 280 278 274 273 274 271 269 267 271 270 271 266 267 273 275
174 149 117 99 82 60 50 55 55 44 36 24 2 350 334 340 345 334 322 297 291 289 292 295 296 303 302 300 295 286 276 270 266 269 272 272 277 278 277 271 263 261 265
185 173 151 136 107 77 67 55 40 27 18 6 347 336 327 337 346 339 328 302 295 293 293 295 298 303 309 310 303 296 289 285 280 273 274 279 283 285 277 273 274 274 278
187 195 188 161 138 125 109 78 40 20 6 2 349 340 334 338 349 344 337 314 300 298 299 302 303 305 317 318 307 301 299 296 293 285 284 284 286 284 280 279 275 273 277
196 197 192 177 165 160 134 101 61 38 7 356 347 341 336 338 349 349 343 323 311 309 309 306 306 311 318 320 307 302 299 303 308 307 298 294 292 292 283 268 262 261 272
162 148 148 158 145 120 87 64 62 51 29 357 342 340 341 340 344 350 348 333 321 314 310 312 315 322 319 315 309 300 300 307 305 300 299 300 300 298 296 288 275 264 266
133 130 122 106 99 98 95 78 57 50 35 356 349 344 345 342 339 342 341 337 329 310 308 313 317 323 320 317 313 311 310 309 303 299 297 299 301 301 303 302 294 282 272
128 129 120 94 76 84 110 101 76 71 43 338 331 320 326 331 331 335 334 334 333 321 313 317 318 320 318 316 318 317 312 307 305 303 301 301 304 303 305 306 305 297 292
133 134 126 117 91 53 43 70 174 225 291 309 317 314 317 319 325 330 330 329 326 321 317 317 317 316 312 311 315 319 315 312 306 301 303 306 311 311 309 311 309 309 306
131 126 119 106 92 64 25 341 299 309 300 287 291 290 300 307 325 334 332 326 323 320 317 313 316 320 324 325 322 320 317 316 311 307 306 309 311 312 314 317 311 309 300
135 130 130 132 137 151 104 7 1 321 332 322 315 305 305 309 315 322 325 327 331 330 324 314 316 318 318 317 316 316 315 313 311 309 307 307 309 311 312 314 312 306 299
149 150 150 157 180 199 206 209 293 338 331 323 332 329 321 321 323 324 325 327 336 339 324 312 309 310 309 309 309 309 309 311 312 307 306 307 308 307 307 307 307 304 299
140 141 170 182 194 229 251 253 260 273 293 301 315 322 328 327 327 330 330 328 323 332 309 302 301 303 304 305 306 306 306 309 310 307 306 305 304 303 304 305 303 301 299
152 168 184 196 206 223 247 257 260 267 275 288 300 307 325 324 323 333 339 325 309 306 303 299 298 300 302 303 303 303 304 305 308 308 304 304 304 302 301 300 300 298 297
162 175 203 215 220 228 240 252 262 269 276 282 289 300 316 315 309 317 321 308 299 295 295 295 295 296 298 298 297 298 300 301 304 302 302 304 304 301 299 299 299 298 297
183 192 198 220 228 227 232 242 256 266 272 278 284 293 302 297 294 296 297 295 292 292 292 293 293 294 292 292 292 293 294 296 297 297 299 301 302 300 297 295 296 296 296
199 207 218 226 236 239 245 252 258 262 269 277 285 293 300 291 285 285 286 288 290 288 289 289 288 287 287 288 290 291 291 293 295 298 300 299 297 297 297 296 297 299 298
212 213 226 239 246 248 252 252 255 261 268 273 278 282 284 279 278 280 283 286 289 289 290 287 286 286 285 283 283 283 283 286 290 294 296 296 298 298 297 298 298 300 299
227 230 237 246 250 253 256 259 259 260 264 269 272 272 273 275 277 279 282 285 287 287 286 284 282 284 288 289 285 281 279 282 286 284 285 286 291 294 297 300 302 301 299
235 240 243 246 250 253 257 260 262 264 265 266 268 270 272 275 277 280 283 284 286 284 286 286 283 285 287 288 287 285 286 288 288 285 282 282 284 288 292 298 302 307 308
240 245 250 253 254 256 258 261 264 267 267 268 269 270 272 274 277 280 283 284 285 285 285 284 283 286 290 289 289 290 290 290 289 286 282 282 285 288 296 299 303 304 304